FW8253 Weather Reports


time (UTC)temp
F
wind
direction
speed
knots
gust
knots
rain 1hr
in
rain 24hr
in
rain mn
in
humidity
%
barometer
mb
20260906212920 93 206 0.0 0.0 0.00 0.00 0.00 60 1009.7
20260906212416 95 245 0.0 0.0 0.00 0.00 0.00 58 1009.4
20260906211915 96 250 0.0 0.0 0.00 0.00 0.00 55 1009.6
20260906211411 97 220 0.0 0.0 0.00 0.00 0.00 56 1009.5
20260906210911 96 196 0.0 0.0 0.00 0.00 0.00 54 1009.6
20260906210407 97 240 0.0 0.0 0.00 0.00 0.00 53 1009.7
20260906205901 96 252 0.0 0.0 0.00 0.00 0.00 54 1009.7
20260906205357 97 135 0.0 0.0 0.00 0.00 0.00 53 1010.0
20260906204853 97 262 0.0 0.0 0.00 0.00 0.00 52 1009.6
20260906204352 97 244 0.0 0.0 0.00 0.00 0.00 51 1009.6
20260906203852 97 239 0.0 0.0 0.00 0.00 0.00 50 1009.7
20260906203346 97 285 0.0 0.0 0.00 0.00 0.00 49 1009.8
20260906202843 96 149 0.0 0.0 0.00 0.00 0.00 51 1009.7
20260906202338 96 235 0.0 0.0 0.00 0.00 0.00 52 1009.5
20260906201837 96 215 0.0 0.0 0.00 0.00 0.00 52 1009.8
20260906201332 94 213 0.0 0.0 0.00 0.00 0.00 55 1009.9
20260906200828 94 216 0.0 0.0 0.00 0.00 0.00 56 1009.7
20260906200324 96 215 0.0 0.0 0.00 0.00 0.00 53 1009.9
20260906195818 96 215 0.0 0.0 0.00 0.00 0.00 51 1009.8
20260906195315 97 248 0.0 0.0 0.00 0.00 0.00 50 1009.8
20260906194811 97 224 0.0 0.0 0.00 0.00 0.00 50 1009.8
20260906194306 97 221 0.0 0.0 0.00 0.00 0.00 50 1010.0
20260906193801 98 226 0.0 0.0 0.00 0.00 0.00 50 1010.2
20260906193256 98 130 0.0 0.0 0.00 0.00 0.00 50 1010.2
20260906192752 98 91 0.0 0.0 0.00 0.00 0.00 50 1010.3
20260906192252 99 270 0.0 0.0 0.00 0.00 0.00 49 1010.2
20260906191750 100 265 0.0 0.0 0.00 0.00 0.00 49 1010.6
20260906191246 100 310 0.0 0.0 0.00 0.00 0.00 49 1010.7
20260906190740 98 225 0.0 0.0 0.00 0.00 0.00 51 1011.0
20260906190234 98 234 0.0 0.0 0.00 0.00 0.00 51 1011.0
20260906185733 97 228 0.0 0.0 0.00 0.00 0.00 52 1010.9
20260906185232 97 239 0.0 0.0 0.00 0.00 0.00 53 1010.9
20260906184727 97 271 0.0 0.0 0.00 0.00 0.00 54 1011.0
20260906184222 98 224 0.0 0.0 0.00 0.00 0.00 52 1011.1
20260906183719 96 230 0.0 0.0 0.00 0.00 0.00 56 1011.0
20260906183215 96 220 0.0 0.0 0.00 0.00 0.00 57 1011.1
20260906182714 95 251 0.0 0.0 0.00 0.00 0.00 56 1011.2
20260906182210 96 239 0.0 0.0 0.00 0.00 0.00 56 1011.4
20260906181705 97 237 0.0 0.0 0.00 0.00 0.00 52 1011.2
20260906181202 98 168 0.0 0.0 0.00 0.00 0.00 51 1011.6
20260906180656 100 164 0.0 0.0 0.00 0.00 0.00 49 1011.5
20260906180151 99 111 0.0 0.0 0.00 0.00 0.00 50 1011.7
20260906175649 96 223 0.0 0.0 0.00 0.00 0.00 53 1011.7
20260906175144 96 229 0.0 0.0 0.00 0.00 0.00 54 1011.9
20260906174642 97 147 0.0 0.0 0.00 0.00 0.00 52 1011.7
20260906174137 99 276 0.0 0.0 0.00 0.00 0.00 50 1011.7
20260906173632 100 300 0.0 0.0 0.00 0.00 0.00 48 1012.0
20260906173128 99 215 0.0 0.0 0.00 0.00 0.00 51 1011.9
20260906172627 99 168 0.0 0.0 0.00 0.00 0.00 51 1012.1
20260906172123 99 190 0.0 0.0 0.00 0.00 0.00 50 1012.1
20260906171622 99 16 0.0 0.0 0.00 0.00 0.00 50 1012.2
20260906171118 99 205 0.0 0.0 0.00 0.00 0.00 50 1012.2
20260906170615 98 252 0.0 0.0 0.00 0.00 0.00 52 1012.1
20260906170113 97 248 0.0 0.0 0.00 0.00 0.00 52 1012.1
20260906165610 96 213 0.0 0.0 0.00 0.00 0.00 55 1012.3
20260906165105 96 87 0.0 0.0 0.00 0.00 0.00 54 1012.4
20260906164604 94 247 0.0 0.0 0.00 0.00 0.00 56 1012.4
20260906164100 96 181 0.0 0.0 0.00 0.00 0.00 55 1012.6
20260906163555 96 133 0.0 0.0 0.00 0.00 0.00 54 1012.7
20260906163051 97 281 0.0 0.0 0.00 0.00 0.00 54 1012.6
20260906162548 97 159 0.0 0.0 0.00 0.00 0.00 52 1013.0
20260906162043 97 243 0.0 0.0 0.00 0.00 0.00 52 1012.9
20260906161538 97 42 0.0 0.0 0.00 0.00 0.00 53 1012.6
20260906161037 96 63 0.0 0.0 0.00 0.00 0.00 53 1012.8
20260906160536 94 67 0.0 0.0 0.00 0.00 0.00 56 1012.9
20260906160035 93 170 0.0 0.0 0.00 0.00 0.00 59 1012.9
20260906155532 94 232 0.0 0.0 0.00 0.00 0.00 58 1013.0
20260906155029 96 8 0.0 0.0 0.00 0.00 0.00 55 1013.2
20260906154523 95 251 0.0 0.0 0.00 0.00 0.00 57 1013.0
20260906154022 96 182 0.0 0.0 0.00 0.00 0.00 57 1013.2
20260906153521 95 189 0.0 0.0 0.00 0.00 0.00 56 1012.9
20260906153011 95 173 0.0 0.0 0.00 0.00 0.00 55 1013.1
20260906152505 94 221 0.0 0.0 0.00 0.00 0.00 57 1013.2
20260906152004 94 215 0.0 0.0 0.00 0.00 0.00 57 1013.2
20260906151500 93 226 0.0 0.0 0.00 0.00 0.00 62 1013.1
20260906150955 92 274 0.0 0.0 0.00 0.00 0.00 59 1013.4
20260906150450 91 205 0.0 0.0 0.00 0.00 0.00 65 1013.2
20260906145949 90 197 0.0 0.0 0.00 0.00 0.00 66 1013.3
20260906145444 90 189 0.0 0.0 0.00 0.00 0.00 67 1013.5
20260906144944 89 166 0.0 0.0 0.00 0.00 0.00 68 1013.2
20260906144439 89 219 0.0 0.0 0.00 0.00 0.00 71 1013.5
20260906143934 88 188 0.0 0.0 0.00 0.00 0.00 69 1013.4
20260906143430 87 187 0.0 0.0 0.00 0.00 0.00 71 1013.4
20260906142926 87 163 0.0 0.0 0.00 0.00 0.00 71 1013.4
20260906142425 88 227 0.0 0.0 0.00 0.00 0.00 69 1013.5
20260906141920 86 221 0.0 0.0 0.00 0.00 0.00 72 1013.2
20260906141420 86 257 0.0 0.0 0.00 0.00 0.00 72 1013.2
20260906140914 87 178 0.0 0.0 0.00 0.00 0.00 70 1013.3
20260906140409 86 133 0.0 0.0 0.00 0.00 0.00 71 1013.5
20260906135907 84 206 0.0 0.0 0.00 0.00 0.00 78 1013.2
20260906135406 84 193 0.0 0.0 0.00 0.00 0.00 77 1013.3
20260906134902 83 192 0.0 0.0 0.00 0.00 0.00 78 1013.3
20260906134357 82 216 0.0 0.0 0.00 0.00 0.00 83 1013.2
20260906133852 81 219 0.0 0.0 0.00 0.00 0.00 82 1013.5
20260906133348 80 215 0.0 0.0 0.00 0.00 0.00 84 1013.3
20260906132843 80 210 0.0 0.0 0.00 0.00 0.00 86 1013.4
20260906132338 79 222 0.0 0.0 0.00 0.00 0.00 86 1013.5
20260906131834 79 217 0.0 0.0 0.00 0.00 0.00 89 1013.3
20260906131329 79 221 0.0 0.0 0.00 0.00 0.00 87 1013.2
20260906130825 78 218 0.0 0.0 0.00 0.00 0.00 88 1013.3
20260906130324 77 196 0.0 0.0 0.00 0.00 0.00 90 1013.4
20260906125823 77 200 0.0 0.0 0.00 0.00 0.00 92 1013.5
20260906125321 76 178 0.0 0.0 0.00 0.00 0.00 93 1013.5
20260906124816 76 174 0.0 0.0 0.00 0.00 0.00 94 1013.5
20260906124312 75 236 0.0 0.0 0.00 0.00 0.00 95 1013.3
20260906123811 75 235 0.0 0.0 0.00 0.00 0.00 96 1013.4
20260906123306 74 230 0.0 0.0 0.00 0.00 0.00 97 1013.5
20260906122806 74 233 0.0 0.0 0.00 0.00 0.00 97 1013.4
20260906122301 73 234 0.0 0.0 0.00 0.00 0.00 98 1013.3
20260906121757 73 233 0.0 0.0 0.00 0.00 0.00 98 1013.4
20260906121253 72 229 0.0 0.0 0.00 0.00 0.00 99 1013.3
20260906120749 72 232 0.0 0.0 0.00 0.00 0.00 99 1013.1
20260906120246 72 234 0.0 0.0 0.00 0.00 0.00 99 1013.2
20260906115741 71 237 0.0 0.0 0.00 0.00 0.00 99 1013.2
20260906115236 71 177 0.0 0.0 0.00 0.00 0.00 99 1013.1
20260906114735 71 177 0.0 0.0 0.00 0.00 0.00 99 1013.3
20260906114231 71 177 0.0 0.0 0.00 0.00 0.00 99 1013.1
20260906113726 71 176 0.0 0.0 0.00 0.00 0.00 99 1012.9
20260906113225 71 181 0.0 0.0 0.00 0.00 0.00 99 1012.9
20260906112724 71 182 0.0 0.0 0.00 0.00 0.00 99 1012.7
20260906112222 71 195 0.0 0.0 0.00 0.00 0.00 99 1012.6
20260906111721 71 194 0.0 0.0 0.00 0.00 0.00 99 1012.5
20260906111215 71 229 0.0 0.0 0.00 0.00 0.00 99 1012.7
20260906110710 71 180 0.0 0.0 0.00 0.00 0.00 99 1012.6
20260906110201 71 180 0.0 0.0 0.00 0.00 0.00 99 1012.5
20260906105700 71 180 0.0 0.0 0.00 0.00 0.00 99 1012.3
20260906105156 71 181 0.0 0.0 0.00 0.00 0.00 99 1012.4
20260906104655 71 180 0.0 0.0 0.00 0.00 0.00 99 1012.4
20260906104154 71 190 0.0 0.0 0.00 0.00 0.00 99 1012.4
20260906103652 71 190 0.0 0.0 0.00 0.00 0.00 99 1012.2
20260906103148 71 190 0.0 0.0 0.00 0.00 0.00 99 1012.3
20260906102643 71 191 0.0 0.0 0.00 0.00 0.00 99 1012.4
20260906102143 71 209 0.0 0.0 0.00 0.00 0.00 99 1012.5
20260906101643 71 219 0.0 0.0 0.00 0.00 0.00 99 1012.4
20260906101143 71 219 0.0 0.0 0.00 0.00 0.00 99 1012.1
20260906100639 72 219 0.0 0.0 0.00 0.00 0.00 99 1012.2
20260906100133 72 183 0.0 0.0 0.00 0.00 0.00 99 1012.3
20260906095628 72 183 0.0 0.0 0.00 0.00 0.00 99 1012.3
20260906095123 72 228 0.0 0.0 0.00 0.00 0.00 99 1012.4
20260906094622 72 230 0.0 0.0 0.00 0.00 0.00 99 1012.2
20260906094118 72 232 0.0 0.0 0.00 0.00 0.00 99 1012.3
20260906093614 72 232 0.0 0.0 0.00 0.00 0.00 99 1012.3
20260906093108 72 232 0.0 0.0 0.00 0.00 0.00 99 1012.2
20260906092604 72 231 0.0 0.0 0.00 0.00 0.00 99 1012.2
20260906092059 72 231 0.0 0.0 0.00 0.00 0.00 99 1012.2
20260906091554 72 231 0.0 0.0 0.00 0.00 0.00 99 1012.1
20260906091051 72 231 0.0 0.0 0.00 0.00 0.00 98 1012.0
20260906090551 72 230 0.0 0.0 0.00 0.00 0.00 98 1012.0
20260906090046 72 229 0.0 0.0 0.00 0.00 0.00 98 1011.8
20260906085544 72 229 0.0 0.0 0.00 0.00 0.00 98 1011.9
20260906085044 72 218 0.0 0.0 0.00 0.00 0.00 98 1011.9
20260906084539 72 196 0.0 0.0 0.00 0.00 0.00 98 1012.0
20260906084037 72 196 0.0 0.0 0.00 0.00 0.00 98 1011.9
20260906083534 72 196 0.0 0.0 0.00 0.00 0.00 98 1012.0
20260906083033 73 196 0.0 0.0 0.00 0.00 0.00 98 1012.0
20260906082528 73 215 0.0 0.0 0.00 0.00 0.00 98 1012.0
20260906082024 73 215 0.0 0.0 0.00 0.00 0.00 98 1012.0
20260906081520 73 215 0.0 0.0 0.00 0.00 0.00 97 1011.8
20260906081015 73 215 0.0 0.0 0.00 0.00 0.00 97 1011.9
20260906080512 73 215 0.0 0.0 0.00 0.00 0.00 97 1011.9
20260906080008 73 215 0.0 0.0 0.00 0.00 0.00 97 1011.7
20260906075502 73 204 0.0 0.0 0.00 0.00 0.00 97 1011.6
20260906074956 73 206 0.0 0.0 0.00 0.00 0.00 97 1011.7
20260906074451 73 207 0.0 0.0 0.00 0.00 0.00 97 1011.6
20260906073949 73 222 0.0 0.0 0.00 0.00 0.00 97 1011.6
20260906073444 73 222 0.0 0.0 0.00 0.00 0.00 97 1011.8
20260906072941 73 222 0.0 0.0 0.00 0.00 0.00 97 1011.9
20260906072436 73 225 0.0 0.0 0.00 0.00 0.00 96 1011.9
20260906071932 73 225 0.0 0.0 0.00 0.00 0.00 96 1011.8
20260906071427 73 225 0.0 0.0 0.00 0.00 0.00 96 1011.7
20260906070923 74 197 0.0 0.0 0.00 0.00 0.00 96 1011.8
20260906070419 74 234 0.0 0.0 0.00 0.00 0.00 96 1011.8
20260906065915 74 232 0.0 0.0 0.00 0.00 0.00 96 1011.8
20260906065409 74 225 0.0 0.0 0.00 0.00 0.00 95 1012.1
20260906064905 74 237 0.0 0.0 0.00 0.00 0.00 95 1011.7
20260906064401 74 226 0.0 0.0 0.00 0.00 0.00 95 1011.9
20260906063900 74 225 0.0 0.0 0.00 0.00 0.00 95 1011.6
20260906063356 75 225 0.0 0.0 0.00 0.00 0.00 94 1011.8
20260906062851 75 225 0.0 0.0 0.00 0.00 0.00 94 1011.9
20260906062350 75 220 0.0 0.0 0.00 0.00 0.00 94 1012.0
20260906061845 75 230 0.0 0.0 0.00 0.00 0.00 94 1011.9
20260906061336 75 232 0.0 0.0 0.00 0.00 0.00 94 1012.1
20260906060830 75 233 0.0 0.0 0.00 0.00 0.00 94 1012.0
20260906060329 75 230 0.0 0.0 0.00 0.00 0.00 94 1012.2
20260906055824 75 224 0.0 0.0 0.00 0.00 0.00 94 1012.1
20260906055319 75 173 0.0 0.0 0.00 0.00 0.00 93 1012.2
20260906054815 75 173 0.0 0.0 0.00 0.00 0.00 93 1012.1
20260906054310 75 170 0.0 0.0 0.00 0.00 0.00 94 1012.3
20260906053806 75 176 0.0 0.0 0.00 0.00 0.00 94 1012.3
20260906053301 75 191 0.0 0.0 0.00 0.00 0.00 93 1012.2
20260906052756 75 190 0.0 0.0 0.00 0.00 0.00 93 1012.4
20260906052253 75 194 0.0 0.0 0.00 0.00 0.00 94 1012.7
20260906051750 74 219 0.0 0.0 0.00 0.00 0.00 94 1012.6
20260906051249 75 230 0.0 0.0 0.00 0.00 0.00 94 1012.5
20260906050744 75 230 0.0 0.0 0.00 0.00 0.00 94 1012.6
20260906050239 75 220 0.0 0.0 0.00 0.00 0.00 93 1012.9
20260906045738 75 221 0.0 0.0 0.00 0.00 0.00 93 1013.0
20260906045233 75 235 0.0 0.0 0.00 0.00 0.00 93 1012.9
20260906044729 75 235 0.0 0.0 0.00 0.00 0.00 93 1013.0
20260906044224 75 190 0.0 0.0 0.00 0.00 0.00 92 1012.7
20260906043720 75 226 0.0 0.0 0.00 0.00 0.00 92 1012.7
20260906043216 75 239 0.0 0.0 0.00 0.00 0.00 92 1012.7
20260906042715 76 226 0.0 0.0 0.00 0.00 0.00 91 1012.7
20260906042214 76 225 0.0 0.0 0.00 0.00 0.00 90 1012.9
20260906041710 76 225 0.0 0.0 0.00 0.00 0.00 90 1012.9
20260906041205 76 203 0.0 0.0 0.00 0.00 0.00 91 1012.8
20260906040701 76 236 0.0 0.0 0.00 0.00 0.00 91 1013.0
20260906040156 76 237 0.0 0.0 0.00 0.00 0.00 90 1013.0
20260906035651 77 235 0.0 0.0 0.00 0.00 0.00 90 1013.0
20260906035147 77 222 0.0 0.0 0.00 0.00 0.00 88 1012.9
20260906034641 77 225 0.0 0.0 0.00 0.00 0.00 88 1013.1
20260906034136 77 177 0.0 0.0 0.00 0.00 0.00 88 1013.0
20260906033632 77 215 0.0 0.0 0.00 0.00 0.00 88 1013.1
20260906033126 77 219 0.0 0.0 0.00 0.00 0.00 88 1013.0
20260906032623 77 192 0.0 0.0 0.00 0.00 0.00 88 1013.2
20260906032122 77 192 0.0 0.0 0.00 0.00 0.00 88 1013.2
20260906031618 77 192 0.0 0.0 0.00 0.00 0.00 88 1013.1
20260906031113 77 191 0.0 0.0 0.00 0.00 0.00 87 1013.2
20260906030612 77 209 0.0 0.0 0.00 0.00 0.00 87 1013.5
20260906030108 77 172 0.0 0.0 0.00 0.00 0.00 88 1013.5
20260906025607 77 174 0.0 0.0 0.00 0.00 0.00 87 1013.3
20260906025106 77 174 0.0 0.0 0.00 0.00 0.00 87 1013.3
20260906024601 77 172 0.0 0.0 0.00 0.00 0.00 87 1013.5
20260906024055 77 176 0.0 0.0 0.00 0.00 0.00 87 1013.2
20260906023552 77 175 0.0 0.0 0.00 0.00 0.00 87 1013.4
20260906023046 77 230 0.0 0.0 0.00 0.00 0.00 87 1013.5
20260906022541 77 231 0.0 0.0 0.00 0.00 0.00 87 1013.6
20260906022037 78 231 0.0 0.0 0.00 0.00 0.00 86 1013.4
20260906021532 78 227 0.0 0.0 0.00 0.00 0.00 86 1013.6
20260906021031 78 219 0.0 0.0 0.00 0.00 0.00 86 1013.7
20260906020531 78 219 0.0 0.0 0.00 0.00 0.00 86 1013.5
20260906020031 78 188 0.0 0.0 0.00 0.00 0.00 86 1013.7
20260906015529 78 235 0.0 0.0 0.00 0.00 0.00 86 1013.7
20260906015024 78 237 0.0 0.0 0.00 0.00 0.00 86 1013.5
20260906014519 78 235 0.0 0.0 0.00 0.00 0.00 85 1013.6
20260906014015 78 204 0.0 0.0 0.00 0.00 0.00 84 1013.4
20260906013510 78 178 0.0 0.0 0.00 0.00 0.00 84 1012.9
20260906013006 78 250 0.0 0.0 0.00 0.00 0.00 84 1012.8
20260906012501 79 241 0.0 0.0 0.00 0.00 0.00 83 1012.7
20260906012000 79 217 0.0 0.0 0.00 0.00 0.00 83 1012.5
20260906011456 79 228 0.0 0.0 0.00 0.00 0.00 82 1012.4
20260906010950 79 249 0.0 0.0 0.00 0.00 0.00 82 1012.3
20260906010446 79 251 0.0 0.0 0.00 0.00 0.00 82 1012.3
20260906005943 80 220 0.0 0.0 0.00 0.00 0.00 81 1012.4
20260906005442 80 194 0.0 0.0 0.00 0.00 0.00 80 1012.0
20260906004940 80 178 0.0 0.0 0.00 0.00 0.00 80 1011.9
20260906004434 80 201 0.0 0.0 0.00 0.00 0.00 80 1011.8
20260906003930 80 177 0.0 0.0 0.00 0.00 0.00 80 1011.7
20260906003425 81 208 0.0 0.0 0.00 0.00 0.00 79 1011.7
20260906002920 81 182 0.0 0.0 0.00 0.00 0.00 78 1011.7
20260906002420 81 191 0.0 0.0 0.00 0.00 0.00 78 1011.4
20260906001915 81 191 0.0 0.0 0.00 0.00 0.00 77 1011.8
20260906001411 81 201 0.0 0.0 0.00 0.00 0.00 77 1011.8
20260906000910 82 233 0.0 0.0 0.00 0.00 0.00 76 1011.9
20260906000406 82 214 0.0 0.0 0.00 0.00 0.00 75 1012.1
20260905235855 82 183 0.0 0.0 0.00 0.00 0.00 74 1012.2
20260905235349 82 231 0.0 0.0 0.00 0.00 0.00 74 1011.9
20260905234844 82 223 0.0 0.0 0.00 0.00 0.00 74 1012.2
20260905234339 82 235 0.0 0.0 0.00 0.00 0.00 74 1012.2
20260905233835 82 80 0.0 0.0 0.00 0.00 0.00 75 1012.2
20260905233329 82 185 0.0 0.0 0.00 0.00 0.00 76 1012.6
20260905232828 82 119 0.0 0.0 0.00 0.00 0.00 77 1012.0
20260905232325 82 212 0.0 0.0 0.00 0.00 0.00 79 1011.9
20260905231820 82 215 0.0 0.0 0.00 0.00 0.00 79 1012.1
20260905231315 82 210 0.0 0.0 0.00 0.00 0.00 78 1011.8
20260905230812 83 198 0.0 0.0 0.00 0.00 0.00 77 1011.8
20260905230309 84 228 0.0 0.0 0.00 0.00 0.00 74 1011.6
20260905225809 84 172 0.0 0.0 0.00 0.00 0.00 73 1011.9
20260905225306 84 275 0.0 0.0 0.00 0.00 0.00 71 1011.7
20260905224804 86 26 0.0 0.0 0.00 0.00 0.00 69 1012.0
20260905224259 88 308 0.0 0.0 0.00 0.00 0.00 64 1012.2
20260905223755 89 11 0.0 0.0 0.00 0.00 0.00 61 1012.1
20260905223252 92 128 0.0 0.0 0.00 0.00 0.00 58 1011.8
20260905222747 95 194 0.0 0.0 0.00 0.00 0.00 61 1011.5
20260905222246 95 253 0.0 0.0 0.00 0.00 0.00 60 1011.1
20260905221742 96 264 0.0 0.0 0.00 0.00 0.00 57 1010.7
20260905221239 96 235 0.0 0.0 0.00 0.00 0.00 59 1010.9
20260905220734 96 229 0.0 0.0 0.00 0.00 0.00 59 1010.7
20260905220230 96 247 0.0 0.0 0.00 0.00 0.00 60 1010.8
20260905215730 96 220 0.0 0.0 0.00 0.00 0.00 60 1010.7
20260905215226 96 242 0.0 0.0 0.00 0.00 0.00 60 1010.5
20260905214721 96 242 0.0 0.0 0.00 0.00 0.00 58 1010.9
20260905214217 97 239 0.0 0.0 0.00 0.00 0.00 59 1010.8
20260905213712 98 232 0.0 0.0 0.00 0.00 0.00 57 1010.3
20260905213208 99 240 0.0 0.0 0.00 0.00 0.00 53 1010.6